STARLINK-35947, 66883

Orbit data source: Space-Track

STARLINK-35947, 66883 is a payload satellite owned by SpaceX/Seattle (US) in LEO that was launched on Thu, 04 Dec 2025 UTC via an FALCON 9 launch vehicle from the Air Force Western Test Range (AFWTR). Payload-class satellites include a variety of spacecraft equipped with specific instruments for various scientific and technological missions. These include communications satellites like Starlink; space stations such as the ISS; scientific satellites like the Hubble; Earth observation satellites from companies like Planet Labs, Umbra, and HawkEye 360; GPS; miniature CubeSats for education and research; and military/defense satellites.

Loading next visibility...
Identifier
66883, 2025-283F
Orbit
LEO
Country
Flag of USUS
Related business
Manufacturer
SpaceX/Seattle
Mission
Operational Commercial Communications
Bus & Motor
STARLINK V2MO, Unknown motor
Mass
575 kg wet, ~530 kg dry
Launch date (UTC)
2025-12-04 (7 months ago)
Launch vehicle
FALCON 9
Launch site
Air Force Western Test Range (AFWTR)
Object type
Payload
Rocket body
Debris
Shape & HBR
Box + 2 Pan, 17.7 m
Radar Cross Section
36.964 m², Large (>1 m²)

Expand to show TLE details & history
Last TLE update: 1 day ago

TLE from 1 day ago
0 STARLINK-35947
1 66883U 25283F   26170.54636818  .00012635  00000-0  38443-3 0  9990
2 66883  53.1593 270.0137 0001185  88.6596 271.4543 15.34402743 31470
Epoch: 2026-06-19T13:06Z
TLE epoch observation values (Epoch: 2026-06-19T13:06:46.210Z)
Latitude
0.00002°
Longitude
165.54738°
Altitude
463.576 km
Speed
7.636 km/s
True Right ascension
18h 00m 03s
True Declination
0° 00' 00"
Sunlit
Object was in full shadow at epoch
Visualization orbit readout
Latitude
Unknown
Longitude
Unknown
Altitude
Unknown
Speed
Unknown
Apparent Right ascension
Unknown
Apparent Declination
Unknown
Sunlit
N/A
Visualization observer readout
Local Sidereal Time
07:14:49
Azimuth
Unknown
Elevation
Unknown
Doppler factor
Unknown
Orbital elements
Apogee altitude
463.763 km
Perigee altitude
462.141 km
Semi-major axis
6,841.089 km
Eccentricity
0.00012
Inclination
53.1593°
RAAN
270.0137°
Arg. of periapsis
88.6596°
True anomaly
271.44073°
Mean anomaly
271.4543°
Eccentric anomaly
271.44751°
Mean motion
3.83579 °/min
Orbital period
93.85 mins
BSTAR
0.00038443
Loading maneuver chart data...
Computing Atmospheric mass density...
Loading historical data...
Loading historical data...
Loading historical data...
Loading historical data...
Loading historical data...
Loading historical data...
Loading historical data...

Documentation

Showing up to 5 results
|